Regional Weather Roundup
Issued by NWS Sterling, VA

Home | Current Version | Previous Version | Text Only | Print | Product List | Glossary On
Versions: 1 2 3 4 5 6 7 8 9 10 11 12 13 14 15 16 17 18 19 20 21 22 23 24 25 26 27 28 29 30 31 32 33 34 35 36 37 38 39 40 41 42 43 44 45 46 47 48 49 50
000
ASUS41 KLWX 291511
RWRLWX

REGIONAL WEATHER ROUNDUP
NATIONAL WEATHER SERVICE BALTIMORE MD/WASHINGTON DC
1100 AM EDT WED MAR 29 2017

Note: "FAIR" indicates few or no clouds below 12,000 feet
with no significant weather and/or obstructions to visibility.
 TC=TEMPERATURE CELSIUS

 * =Non NWS site. Station does not report precipitation (e.g. rain,
    snow, etc.), thunder, or fog.

DCZ001-MDZ009-015-VAZ040>042-051-053>054-291600-
WASHINGTON METRO

CITY           SKY/WX    TMP DP  RH WIND       PRES   REMARKS
WASHINGTON NAT MOSUNNY   60  44  55 N14       30.14R
DULLES         PTSUNNY   43  37  81 E12G17    30.22R
ANDREWS AFB    SUNNY     57  40  52 NW15G24   30.12R
FT BELVOIR     MOSUNNY   58  42  56 NW12      30.13R
QUANTICO       PTSUNNY   59  47  64 NE12      30.14R
COLLEGE PARK*  SUNNY     55  37  50 N9        30.14R
LEESBURG*      MOSUNNY   55  45  67 N10G16    30.15S
MANASSAS*      CLOUDY   N/A N/A N/A NE12      30.15R

$$

MDZ006>007-011-014-291600-
BALTIMORE METRO

CITY           SKY/WX    TMP DP  RH WIND       PRES   REMARKS
BWI AIRPORT    MOSUNNY   56  39  53 NW10      30.13R
MD SCIENCE CTR   N/A     56  35  45 MISG      30.14R
MARTIN STATE   SUNNY     55  39  54 NW10      30.15R
ANNAPOLIS      SUNNY     54  39  57 NW12G21   30.13R
FORT MEADE*    SUNNY     55  36  47 N12       30.16S

$$

MDZ012-015-019>023-291600-
MARYLAND EASTERN SHORE

CITY           SKY/WX    TMP DP  RH WIND       PRES   REMARKS
OCEAN CITY     CLOUDY    51  41  68 N13       30.10R
SALISBURY      CLOUDY    53  43  68 N9        30.10R
BAY BRIDGE AP* SUNNY     52  39  62 N12G20    30.14R
CAMBRIDGE*     SUNNY     55  41  58 NW13      30.11S
EASTON*        MOSUNNY   55  37  50 N9G17     30.16R

$$

MDZ017>025-291600-
SOUTHERN MARYLAND

CITY           SKY/WX    TMP DP  RH WIND       PRES   REMARKS
PATUXENT RIVER MOSUNNY   54  45  71 NE18      30.11R
ST INIGOES     SUNNY     55  41  59 N10G20    30.11R
LEONARDTOWN*   SUNNY     54  41  62 NE5       30.13R

$$

MDZ003>005-291600-
NORTH CENTRAL MARYLAND

CITY           SKY/WX    TMP DP  RH WIND       PRES   REMARKS
FREDERICK*     MOSUNNY   57  46  67 NE10      30.17F
HAGERSTOWN APT SUNNY     54  38  54 N12       30.16R
WESTMINSTER*   SUNNY     52  39  62 N8G16     30.15R

$$

MDZ501>502-291600-
WESTERN MARYLAND

CITY           SKY/WX    TMP DP  RH WIND       PRES   REMARKS
OAKLAND*       PTSUNNY   41  36  81 N5        30.16R
CUMBERLAND*    SUNNY     55  37  50 N5        30.22R

$$

VAZ025>031-291600-
SHENANDOAH VALLEY

CITY           SKY/WX    TMP DP  RH WIND       PRES   REMARKS
WINCHESTER*    PTSUNNY   52  37  58 NW9       30.16R
FRONT ROYAL*   CLOUDY    54  43  66 N5        30.15R
LURAY*         CLOUDY    54  45  71 CALM      30.15R
NEW MARKET*    CLOUDY    55  42  61 E8        30.15R
STAUNTON*      PTSUNNY   58  45  62 N8        30.16R
WAYNESBORO*    NOT AVBL

$$

WVZ021-048>050-054>055-291600-
EASTERN WEST VIRGINIA PANHANDLE

CITY           SKY/WX    TMP DP  RH WIND       PRES   REMARKS
MARTINSBURG    MOSUNNY   54  38  54 NW6       30.16R
PETERSBURG*    PTSUNNY   55  42  61 CALM      30.17R

$$

VAZ036>039-050-291600-
CENTRAL FOOTHILLS

CITY           SKY/WX    TMP DP  RH WIND       PRES   REMARKS
CHARLOTTESVILL MOSUNNY   62  45  53 N6        30.12R
CULPEPER*      CLOUDY    60  47  61 NW8       30.14R
ORANGE*        MOSUNNY   59  45  58 N8        30.14R
GORDONSVILLE*  SUNNY     62  47  58 N8        30.11S
WARRENTON*     CLOUDY    59  42  53 N10       30.13R

$$

VAZ055>057-291600-
NORTH AND CENTRAL PIEDMONT

CITY           SKY/WX    TMP DP  RH WIND       PRES   REMARKS
FREDERICKSBRG* CLOUDY    59  48  66 NW10G16   30.12R
STAFFORD*      CLOUDY    58  47  67 N10       30.16R

$$

NCZ024-NYZ072-PAZ021-071-VAZ022-071-291600-
OTHER REGIONAL OBSERVATIONS

CITY           SKY/WX    TMP DP  RH WIND       PRES   REMARKS
NEW YORK CITY  CLOUDY    48  37  65 N8        30.11R
PHILADELPHIA   MOSUNNY   51  35  54 NW15      30.12R
PITTSBURGH     PTSUNNY   49  37  63 N9        30.23R
ROANOKE        MOSUNNY   65  46  50 E6        30.13S
RICHMOND       PTSUNNY   63  51  65 NE12      30.10R
RALEIGH        PTSUNNY   67  52  58 NE13      30.10R

$$

ANZ530>537-291600-
MARINE OBSERVATIONS

STATION/POSITION TIME  TEMP    WIND        PRES
                       AIR SEA DIR/SP/G
                 (UTC) (F)     (DEG/KT/KT) (MB)
THOMAS PT LIGHT  1500   51 47  360/ 15/ 16   N/A
BALT KEY BRIDGE  1448   52     340/ 13/ 15 1020.3R
COVE POINT       1448   49      30/ 17/ 23 1020.4R
LEWISETTA        1448   54 52   40/  8/ 11 1019.4R
SOLOMONS ISLAND  1448   52 49  360/ 16/ 19   N/A
PINEY POINT      1448           30/  9/ 12   N/A

$$




USA.gov is the U.S. government's official web portal to all federal, state and local government web resources and services.